Regional Weather Roundup
Issued by NWS Raleigh/Durham, NC

Home | Current Version | Previous Version | Text Only | Print | Product List | Glossary On
Versions: 1 2 3 4 5 6 7 8 9 10 11 12 13 14 15 16 17 18 19 20 21 22 23 24 25 26 27 28 29 30 31 32 33 34 35 36 37 38 39 40 41 42 43 44 45 46 47 48 49 50
000
ASUS42 KRAH 230610
RWRRAH
NORTH CAROLINA WEATHER ROUNDUP
NATIONAL WEATHER SERVICE RALEIGH NC
200 AM EDT WED AUG 23 2017

NOTE: "FAIR" INDICATES FEW OR NO CLOUDS BELOW 12,000 FEET WITH NO
SIGNIFICANT WEATHER AND/OR OBSTRUCTIONS TO VISIBILITY.

NCZ001-053-055-056-065-067-230700-
WESTERN NORTH CAROLINA

CITY           SKY/WX    TMP DP  RH WIND       PRES   REMARKS
ASHEVILLE      CLEAR     69  66  90 CALM      30.04F
JEFFERSON      CLOUDY    72  61  67 W12G17    30.06F
MORGANTON      CLEAR     69  69 100 CALM      29.99F
HICKORY        CLEAR     74  71  91 CALM      29.95F
RUTHERFORDTON  CLEAR     73  73  97 CALM      29.97S
MOUNT AIRY     CLEAR     74  69  85 SE3       29.96F
BOONE          CLEAR     69  61  75 W10       30.06F
$$

NCZ021-022-025-041-071-084-088-230700-
CENTRAL NORTH CAROLINA

CITY           SKY/WX    TMP DP  RH WIND       PRES   REMARKS
CHARLOTTE      CLEAR     78  74  87 SW7       29.95F
GREENSBORO     CLEAR     76  73  91 SW7       29.93F
WINSTON-SALEM  CLEAR     77  71  82 CALM      29.95S
RALEIGH-DURHAM PTCLDY    78  73  84 SW8       29.92F
FORT BRAGG     CLEAR     78  74  86 SW6       29.92F
FAYETTEVILLE   CLEAR     78  76  93 SW9       29.93F
BURLINGTON     CLEAR     76  71  85 SW3       29.92F
LAURINBURG     CLEAR     77  77 100 SW7       29.94F
$$

NCZ011-015-027-028-043-044-047-080-103-230700-
NORTHEASTERN NORTH CAROLINA

CITY           SKY/WX    TMP DP  RH WIND       PRES   REMARKS
ROCKY MT-WILSO CLEAR     76  74  93 S6        29.92F
GREENVILLE     CLEAR     77  75  94 SW6       29.95S
WASHINGTON     CLEAR     77  74  91 S5        29.94S
ELIZABETH CITY CLEAR     79  77  94 SW10      29.91F
MANTEO         CLEAR     79  76  89 SW12      29.93S
CAPE HATTERAS  CLEAR     82  78  88 SW10      29.95S
$$

NCZ078-087-090-091-093-098-101-230700-
SOUTHEASTERN NORTH CAROLINA

CITY           SKY/WX    TMP DP  RH WIND       PRES   REMARKS
LUMBERTON      CLEAR     76  75  97 SW7       29.94S
GOLDSBORO      CLEAR     78  73  83 N5        29.94F
KINSTON        CLEAR     77  74  90 S9        29.94F
KENANSVILLE    CLEAR     75  73  94 CALM      29.94F
NEW BERN       CLEAR     76  75  97 SW7       29.95F
CHERRY POINT   CLEAR     77  75  93 SW3       29.96S
BEAUFORT       PTCLDY    82  77  84 SW15      29.95F
JACKSONVILLE   CLEAR     78  76  93 SW6       29.94F
WILMINGTON     CLEAR     79  74  84 S5        29.95F
$$




USA.gov is the U.S. government's official web portal to all federal, state and local government web resources and services.